Change the Weather History Date:

Wednesday, April 17, 2013

  Actual Average Record
Temperature  
Mean Temperature 77 °F 63 °F  
Max Temperature 86 °F 75 °F 90 °F (1955)
Min Temperature 68 °F 51 °F 33 °F (1949)
Degree Days  
Heating Degree Days 0 4  
Month to date heating degree days 81 100  
Since 1 July heating degree days 2546 2612  
Cooling Degree Days 12 2  
Month to date cooling degree days 50 27  
Year to date cooling degree days 57 49  
Growing Degree Days 27 (Base 50)    
Moisture  
Dew Point 64 °F    
Average Humidity 68    
Maximum Humidity 84    
Minimum Humidity 51    
Precipitation  
Precipitation 0.00 in 0.15 in 2.80 in (1900)
Month to date precipitation 2.52 2.56  
Year to date precipitation 22.30 17.16  
Snow  
Snow 0.00 in 0.00 in - ()
Month to date snowfall 0.0 0.2  
Since 1 July snowfall 2.1 1.6  
Snow Depth 0.00 in    
Sea Level Pressure  
Sea Level Pressure 30.11 in    
Wind  
Wind Speed 7 mph (SSE)    
Max Wind Speed 15 mph    
Max Gust Speed 22 mph    
Visibility 10 miles    
Events      
T = Trace of Precipitation, MM = Missing Value Source: NWS Daily Summary

Daily Weather History Graph

Daily Weather History Graph

Search for Another Location

Airport or City:

Trip Planner

Search our weather history database for the weather conditions in past years. The results will help you decide how hot, cold, wet, or windy it might be!

Date:

Astronomy

Apr. 17, 2013 Rise Set
Actual Time 6:13 AM CDT 7:19 PM CDT
Civil Twilight 5:48 AM CDT 7:45 PM CDT
Nautical Twilight 5:17 AM CDT 8:15 PM CDT
Astronomical Twilight 4:46 AM CDT 8:47 PM CDT
Moon 11:32 AM CDT (4/17) 12:51 AM CDT (4/17)
Length of Visible Light 13h 57m
Length of Day
13h 05m
Waxing Crescent, 42% of the Moon is Illuminated
Apr 17
Waxing Crescent
Apr 18
First Quarter
Apr 25
Full
May 2
Last Quarter
May 9
New

Hourly Weather History & Observations

Time (CDT) Temp. Heat Index Dew Point Humidity Pressure Visibility Wind Dir Wind Speed Gust Speed Precip Events Conditions
12:53 AM 75.0 °F - 63.0 °F 66% 30.14 in 10.0 mi SE 6.9 mph - N/A   Mostly Cloudy
1:53 AM 73.9 °F - 63.0 °F 68% 30.14 in 10.0 mi SSE 8.1 mph - N/A   Scattered Clouds
2:53 AM 73.0 °F - 63.0 °F 71% 30.14 in 10.0 mi SE 4.6 mph - N/A   Overcast
3:53 AM 72.0 °F - 63.0 °F 73% 30.14 in 10.0 mi SE 3.5 mph - N/A   Mostly Cloudy
4:53 AM 70.0 °F - 63.0 °F 78% 30.14 in 10.0 mi Calm Calm - N/A   Partly Cloudy
5:53 AM 70.0 °F - 63.0 °F 78% 30.15 in 10.0 mi Calm Calm - N/A   Partly Cloudy
6:53 AM 70.0 °F - 64.0 °F 81% 30.17 in 10.0 mi ESE 3.5 mph - N/A   Mostly Cloudy
7:53 AM 72.0 °F - 64.0 °F 76% 30.18 in 10.0 mi East 3.5 mph - N/A   Clear
8:53 AM 75.2 °F - 64.4 °F 69% 30.21 in 10.0 mi SE 9.2 mph - N/A   Clear
9:53 AM 77.0 °F - 64.0 °F 64% 30.18 in 10.0 mi South 8.1 mph - N/A   Clear
10:53 AM 79.0 °F - 64.9 °F 62% 30.17 in 10.0 mi South 8.1 mph - N/A   Clear
11:53 AM 82.0 °F 84.1 °F 66.0 °F 58% 30.14 in 10.0 mi SE 9.2 mph - N/A   Partly Cloudy
12:53 PM 84.0 °F 85.8 °F 64.9 °F 53% 30.12 in 10.0 mi SSE 8.1 mph - N/A   Scattered Clouds
1:53 PM 82.9 °F 84.4 °F 64.0 °F 53% 30.11 in 10.0 mi South 8.1 mph - N/A   Overcast
2:53 PM 84.0 °F 85.8 °F 64.9 °F 53% 30.09 in 10.0 mi SSE 9.2 mph - N/A   Scattered Clouds
3:53 PM 84.9 °F 86.6 °F 64.9 °F 51% 30.06 in 10.0 mi South 11.5 mph - N/A   Mostly Cloudy
4:53 PM 84.0 °F 85.4 °F 64.0 °F 51% 30.05 in 10.0 mi SSE 8.1 mph - N/A   Partly Cloudy
5:53 PM 82.9 °F 84.4 °F 64.0 °F 53% 30.04 in 10.0 mi SSE 10.4 mph - N/A   Partly Cloudy
6:53 PM 80.1 °F 81.9 °F 64.9 °F 60% 30.03 in 10.0 mi SE 6.9 mph - N/A   Partly Cloudy
7:53 PM 78.1 °F - 64.9 °F 64% 30.04 in 10.0 mi SE 6.9 mph - N/A   Partly Cloudy
8:53 PM 75.9 °F - 64.9 °F 69% 30.06 in 10.0 mi SE 4.6 mph - N/A   Clear
9:53 PM 75.0 °F - 64.9 °F 71% 30.06 in 10.0 mi SE 3.5 mph - N/A   Clear
10:53 PM 75.9 °F - 64.0 °F 67% 30.05 in 10.0 mi SE 8.1 mph - N/A   Scattered Clouds
11:53 PM 73.9 °F - 64.0 °F 71% 30.04 in 10.0 mi SSE 8.1 mph - N/A   Clear